EN

Hourly Weather Port Pirie

Today, 27 November, Friday

Time Temperature Precipitation Wind Pressure Humidity
00:00 +29°C° 0 mm 2 mps 753 mmHg 36%
01:00 +29°C° 0 mm 2 mps 753 mmHg 36%
02:00 +29°C° 0 mm 2 mps 753 mmHg 35%
03:00 +28°C° 0 mm 3 mps 752 mmHg 34%
04:00 +29°C° 0 mm 3 mps 752 mmHg 33%
05:00 +30°C° 0 mm 3 mps 753 mmHg 31%
06:00 +31°C° 0 mm 3 mps 753 mmHg 30%
07:00 +34°C° 0 mm 4 mps 753 mmHg 26%
08:00 +37°C° 0 mm 5 mps 753 mmHg 22%
09:00 +41°C° 0 mm 6 mps 753 mmHg 16%
10:00 +42°C° 0 mm 6 mps 752 mmHg 15%
11:00 +42°C° 0 mm 5 mps 752 mmHg 14%
12:00 +43°C° 0 mm 5 mps 751 mmHg 13%
13:00 +43°C° 0 mm 5 mps 751 mmHg 13%
14:00 +43°C° 0 mm 4 mps 750 mmHg 13%
15:00 +44°C° 0 mm 4 mps 750 mmHg 13%
16:00 +42°C° 0 mm 3 mps 750 mmHg 14%
17:00 +40°C° 0 mm 2 mps 749 mmHg 15%
18:00 +39°C° 0 mm 2 mps 749 mmHg 15%
19:00 +38°C° 0 mm 2 mps 749 mmHg 16%
20:00 +37°C° 0 mm 2 mps 750 mmHg 17%
21:00 +35°C° 0 mm 2 mps 750 mmHg 18%
22:00 +34°C° 0 mm 2 mps 749 mmHg 20%
23:00 +32°C° 0 mm 2 mps 749 mmHg 22%

Tomorrow, 28 November, Saturday

Time Temperature Precipitation Wind Pressure Humidity
00:00 +31°C° 0 mm 2 mps 749 mmHg 23%
01:00 +31°C° 0 mm 2 mps 748 mmHg 23%
02:00 +31°C° 0 mm 2 mps 747 mmHg 23%
03:00 +30°C° 0 mm 2 mps 747 mmHg 23%
04:00 +32°C° 0 mm 2 mps 747 mmHg 22%
05:00 +34°C° 0 mm 3 mps 747 mmHg 21%
06:00 +35°C° 0 mm 3 mps 748 mmHg 19%
07:00 +37°C° 0 mm 4 mps 747 mmHg 17%
08:00 +40°C° 0 mm 5 mps 747 mmHg 15%
09:00 +42°C° 0 mm 5 mps 747 mmHg 13%
10:00 +42°C° 0 mm 5 mps 746 mmHg 14%
11:00 +42°C° 0 mm 5 mps 745 mmHg 15%
12:00 +42°C° 0 mm 5 mps 745 mmHg 16%
13:00 +41°C° 0 mm 7 mps 744 mmHg 19%
14:00 +40°C° 0 mm 9 mps 744 mmHg 22%
15:00 +39°C° 0 mm 11 mps 743 mmHg 25%
16:00 +36°C° 0 mm 10 mps 744 mmHg 32%
17:00 +32°C° 0 mm 10 mps 746 mmHg 39%
18:00 +28°C° 0 mm 10 mps 747 mmHg 46%
19:00 +26°C° 0 mm 9 mps 748 mmHg 51%
20:00 +24°C° 0 mm 8 mps 749 mmHg 55%
21:00 +22°C° 0 mm 7 mps 750 mmHg 60%
22:00 +22°C° 0 mm 7 mps 750 mmHg 66%
23:00 +21°C° 0 mm 8 mps 751 mmHg 71%

Day after tomorrow, 29 November, Sunday

Time Temperature Precipitation Wind Pressure Humidity
00:00 +21°C° 0 mm 8 mps 751 mmHg 77%
01:00 +20°C° 0 mm 8 mps 751 mmHg 76%
02:00 +18°C° 0 mm 8 mps 751 mmHg 76%
03:00 +18°C° 0 mm 8 mps 751 mmHg 75%
04:00 +18°C° 0 mm 8 mps 752 mmHg 73%
05:00 +17°C° 0 mm 8 mps 753 mmHg 71%
06:00 +17°C° 0 mm 7 mps 753 mmHg 68%
07:00 +19°C° 0 mm 6 mps 754 mmHg 61%
08:00 +21°C° 0 mm 6 mps 754 mmHg 54%
09:00 +22°C° 0 mm 5 mps 755 mmHg 47%
10:00 +23°C° 0 mm 5 mps 754 mmHg 43%
11:00 +26°C° 0 mm 6 mps 754 mmHg 38%
12:00 +27°C° 0 mm 6 mps 754 mmHg 33%
13:00 +27°C° 0 mm 7 mps 753 mmHg 37%
14:00 +26°C° 0 mm 8 mps 753 mmHg 40%
15:00 +24°C° 0 mm 8 mps 753 mmHg 44%
16:00 +24°C° 0 mm 8 mps 753 mmHg 43%
17:00 +23°C° 0 mm 8 mps 753 mmHg 43%
18:00 +23°C° 0 mm 8 mps 753 mmHg 42%
19:00 +21°C° 0 mm 7 mps 754 mmHg 46%
20:00 +20°C° 0 mm 6 mps 754 mmHg 49%
21:00 +19°C° 0 mm 5 mps 754 mmHg 53%
22:00 +17°C° 0 mm 5 mps 754 mmHg 55%
23:00 +18°C° 0 mm 4 mps 754 mmHg 57%

30 November, Monday

Time Temperature Precipitation Wind Pressure Humidity
00:00 +17°C° 0 mm 3 mps 754 mmHg 59%
01:00 +17°C° 0 mm 3 mps 754 mmHg 57%
02:00 +17°C° 0 mm 2 mps 753 mmHg 56%
03:00 +17°C° 0 mm 2 mps 753 mmHg 54%
04:00 +18°C° 0 mm 2 mps 753 mmHg 51%
05:00 +19°C° 0 mm 3 mps 753 mmHg 48%
06:00 +20°C° 0 mm 3 mps 753 mmHg 44%
07:00 +24°C° 0 mm 3 mps 753 mmHg 39%
08:00 +26°C° 0 mm 4 mps 752 mmHg 33%
09:00 +29°C° 0 mm 5 mps 752 mmHg 28%
10:00 +32°C° 0 mm 4 mps 751 mmHg 25%
11:00 +33°C° 0 mm 4 mps 751 mmHg 22%
12:00 +35°C° 0 mm 4 mps 750 mmHg 20%
13:00 +35°C° 0 mm 3 mps 750 mmHg 19%
14:00 +36°C° 0 mm 3 mps 749 mmHg 18%
15:00 +37°C° 0 mm 2 mps 749 mmHg 17%
16:00 +36°C° 0 mm 2 mps 748 mmHg 18%
17:00 +34°C° 0 mm 1 mps 748 mmHg 19%
18:00 +33°C° 0 mm 1 mps 748 mmHg 20%
19:00 +34°C° 0 mm 2 mps 748 mmHg 19%
20:00 +34°C° 0 mm 3 mps 747 mmHg 19%
21:00 +34°C° 0 mm 4 mps 747 mmHg 18%
22:00 +33°C° 0 mm 5 mps 747 mmHg 22%
23:00 +32°C° 0 mm 7 mps 747 mmHg 25%

1 December, Tuesday

Time Temperature Precipitation Wind Pressure Humidity
00:00 +31°C° 0 mm 8 mps 746 mmHg 28%
01:00 +28°C° 0 mm 7 mps 747 mmHg 41%
02:00 +27°C° 0 mm 5 mps 748 mmHg 54%
03:00 +25°C° 0 mm 4 mps 749 mmHg 67%
04:00 +23°C° 3.4 mm 6 mps 750 mmHg 68%
05:00 +22°C° 3.4 mm 7 mps 751 mmHg 68%
06:00 +21°C° 3.4 mm 8 mps 752 mmHg 68%
07:00 +21°C° 0 mm 8 mps 753 mmHg 65%
08:00 +21°C° 0 mm 8 mps 754 mmHg 61%
09:00 +21°C° 0 mm 8 mps 755 mmHg 57%
10:00 +21°C° 0 mm 9 mps 755 mmHg 55%
11:00 +21°C° 0 mm 10 mps 755 mmHg 52%
12:00 +21°C° 0 mm 10 mps 755 mmHg 49%
13:00 +21°C° 0 mm 10 mps 756 mmHg 47%
14:00 +21°C° 0 mm 10 mps 756 mmHg 44%
15:00 +19°C° 0 mm 10 mps 757 mmHg 42%
16:00 +19°C° 0 mm 10 mps 757 mmHg 43%
17:00 +18°C° 0 mm 9 mps 758 mmHg 44%
18:00 +17°C° 0 mm 9 mps 758 mmHg 45%
19:00 +16°C° 0 mm 8 mps 759 mmHg 48%
20:00 +16°C° 0 mm 7 mps 760 mmHg 52%
21:00 +15°C° 0 mm 7 mps 761 mmHg 55%
22:00 +14°C° 0 mm 6 mps 761 mmHg 56%
23:00 +14°C° 0 mm 6 mps 761 mmHg 57%

2 December, Wednesday

Time Temperature Precipitation Wind Pressure Humidity
00:00 +14°C° 0 mm 5 mps 761 mmHg 58%
01:00 +13°C° 0 mm 5 mps 761 mmHg 61%
02:00 +13°C° 0 mm 5 mps 761 mmHg 64%
03:00 +13°C° 0 mm 5 mps 761 mmHg 66%
04:00 +13°C° 0 mm 5 mps 761 mmHg 64%
05:00 +13°C° 0 mm 5 mps 762 mmHg 61%
06:00 +13°C° 0 mm 5 mps 762 mmHg 59%
07:00 +15°C° 0 mm 4 mps 763 mmHg 52%
08:00 +17°C° 0 mm 4 mps 763 mmHg 45%
09:00 +19°C° 0 mm 3 mps 763 mmHg 38%
10:00 +20°C° 0 mm 4 mps 763 mmHg 36%
11:00 +21°C° 0 mm 4 mps 763 mmHg 34%
12:00 +23°C° 0 mm 5 mps 762 mmHg 31%
13:00 +22°C° 0 mm 6 mps 762 mmHg 36%
14:00 +22°C° 0 mm 7 mps 761 mmHg 42%
15:00 +21°C° 0 mm 8 mps 761 mmHg 47%
16:00 +21°C° 0 mm 8 mps 761 mmHg 47%
17:00 +21°C° 0 mm 7 mps 761 mmHg 47%
18:00 +21°C° 0 mm 7 mps 761 mmHg 48%
19:00 +20°C° 0 mm 7 mps 762 mmHg 51%
20:00 +19°C° 0 mm 6 mps 762 mmHg 54%
21:00 +16°C° 0 mm 6 mps 762 mmHg 57%
22:00 +16°C° 0 mm 5 mps 762 mmHg 59%
23:00 +16°C° 0 mm 5 mps 762 mmHg 61%
Show more